Starlink 33859

operational
NORAD ID: 63640 Int'l Des: 2025-083 Owner: SPXS Country: US Constellation: starlink
LEOCIRCULAR

Starlink 33859について

説明を読み込み中...

リアルタイム位置

3D地球を読み込み中...

次回通過

高度履歴

Altitude vs Time

uPlot chart will show altitude changes over time

軌道要素

1 63640U 25083G 26034.50033510 .00030550 00000-0 11150-2 0 9992
2 63640 43.0022 198.6779 0001692 259.4367 100.6294 15.27580821 44833
Epoch: Feb 3, 2026 • Age: 14 hours

現在のステータス

高度 486.6 km
速度 7.63 km/s
衛星直下点 40.46°N, 89.8°E
打ち上げ日 Apr 25, 2025
運用期間 0.7 years
タイプ internet

技術仕様

分類 Payload
質量 575.00 kg
乾燥質量 530.00 kg
総質量 575.00 kg
長さ 0.30 m
直径 4.10 m
スパン 29.00 m
形状 Box + pan
製造者 SPXS
バスタイプ Starlink V2MO
フェーズステータス In Orbit
所有者/国 SPXS/US

大規模コンステレーション

Loading constellations...